Year,Month,Day,Hour,Minute,Value (Times are PST for temperature in C)
2019,03,19,00,00,9.10
2019,03,19,00,01,9.10
2019,03,19,00,02,9.10
2019,03,19,00,03,9.10
2019,03,19,00,04,9.10
2019,03,19,00,05,9.20
2019,03,19,00,06,9.20
2019,03,19,00,07,9.20
2019,03,19,00,08,9.20
2019,03,19,00,09,9.20
2019,03,19,00,10,9.30
2019,03,19,00,11,9.30
2019,03,19,00,12,9.30
2019,03,19,00,13,9.30
2019,03,19,00,14,9.30
2019,03,19,00,15,9.30
2019,03,19,00,16,9.30
2019,03,19,00,17,9.20
2019,03,19,00,18,9.30
2019,03,19,00,19,9.30
2019,03,19,00,20,9.30
2019,03,19,00,21,9.30
2019,03,19,00,22,9.30
2019,03,19,00,23,9.30
2019,03,19,00,24,9.30
2019,03,19,00,25,9.30
2019,03,19,00,26,9.40
2019,03,19,00,27,9.40
2019,03,19,00,28,9.40
2019,03,19,00,29,9.40
2019,03,19,00,30,9.40
2019,03,19,00,31,9.40
2019,03,19,00,32,9.40
2019,03,19,00,33,9.40
2019,03,19,00,34,9.40
2019,03,19,00,35,9.30
2019,03,19,00,36,9.30
2019,03,19,00,37,9.30
2019,03,19,00,38,9.30
2019,03,19,00,39,9.20
2019,03,19,00,40,9.20
2019,03,19,00,41,9.20
2019,03,19,00,42,9.20
2019,03,19,00,43,9.10
2019,03,19,00,44,9.10
2019,03,19,00,45,9.00
2019,03,19,00,46,9.00
2019,03,19,00,47,8.90
2019,03,19,00,48,8.90
2019,03,19,00,49,8.90
2019,03,19,00,50,8.80
2019,03,19,00,51,8.80
2019,03,19,00,52,8.80
2019,03,19,00,53,8.80
2019,03,19,00,54,8.80
2019,03,19,00,55,8.80
2019,03,19,00,56,8.70
2019,03,19,00,57,8.70
2019,03,19,00,58,8.70
2019,03,19,00,59,8.70
2019,03,19,01,00,8.70
2019,03,19,01,01,8.70
2019,03,19,01,02,8.70
2019,03,19,01,03,8.70
2019,03,19,01,04,8.70
2019,03,19,01,05,8.70
2019,03,19,01,06,8.70
2019,03,19,01,07,8.70
2019,03,19,01,08,8.70
2019,03,19,01,09,8.70
2019,03,19,01,10,8.70
2019,03,19,01,11,8.70
2019,03,19,01,12,8.70
2019,03,19,01,13,8.70
2019,03,19,01,14,8.70
2019,03,19,01,15,8.70
2019,03,19,01,16,8.70
2019,03,19,01,17,8.80
2019,03,19,01,18,8.80
2019,03,19,01,19,8.80
2019,03,19,01,20,8.80
2019,03,19,01,21,8.90
2019,03,19,01,22,8.90
2019,03,19,01,23,8.90
2019,03,19,01,24,8.90
2019,03,19,01,25,8.90
2019,03,19,01,26,8.90
2019,03,19,01,27,8.90
2019,03,19,01,28,8.90
2019,03,19,01,29,9.00
2019,03,19,01,30,8.90
2019,03,19,01,31,8.90
2019,03,19,01,32,8.90
2019,03,19,01,33,8.90
2019,03,19,01,34,8.90
2019,03,19,01,35,8.90
2019,03,19,01,36,8.90
2019,03,19,01,37,8.90
2019,03,19,01,38,8.90
2019,03,19,01,39,8.90
2019,03,19,01,40,8.90
2019,03,19,01,41,8.90
2019,03,19,01,42,8.90
2019,03,19,01,43,8.90
2019,03,19,01,44,8.90
2019,03,19,01,45,8.90
2019,03,19,01,46,8.90
2019,03,19,01,47,8.90
2019,03,19,01,48,8.90
2019,03,19,01,49,8.90
2019,03,19,01,50,8.90
2019,03,19,01,51,8.90
2019,03,19,01,52,8.90
2019,03,19,01,53,8.80
2019,03,19,01,54,8.80
2019,03,19,01,55,8.80
2019,03,19,01,56,8.70
2019,03,19,01,57,8.70
2019,03,19,01,58,8.60
2019,03,19,01,59,8.60
2019,03,19,02,00,8.60
2019,03,19,02,01,8.60
2019,03,19,02,02,8.50
2019,03,19,02,03,8.50
2019,03,19,02,04,8.40
2019,03,19,02,05,8.40
2019,03,19,02,06,8.30
2019,03,19,02,07,8.30
2019,03,19,02,08,8.30
2019,03,19,02,09,8.30
2019,03,19,02,10,8.20
2019,03,19,02,11,8.20
2019,03,19,02,12,8.20
2019,03,19,02,13,8.20
2019,03,19,02,14,8.20
2019,03,19,02,15,8.20
2019,03,19,02,16,8.20
2019,03,19,02,17,8.20
2019,03,19,02,18,8.20
2019,03,19,02,19,8.20
2019,03,19,02,20,8.10
2019,03,19,02,21,8.10
2019,03,19,02,22,8.10
2019,03,19,02,23,8.10
2019,03,19,02,24,8.10
2019,03,19,02,25,8.10
2019,03,19,02,26,8.00
2019,03,19,02,27,8.10
2019,03,19,02,28,8.00
2019,03,19,02,29,8.00
2019,03,19,02,30,8.00
2019,03,19,02,31,8.00
2019,03,19,02,32,7.90
2019,03,19,02,33,7.90
2019,03,19,02,34,7.90
2019,03,19,02,35,7.90
2019,03,19,02,36,7.90
2019,03,19,02,37,7.90
2019,03,19,02,38,7.80
2019,03,19,02,39,7.80
2019,03,19,02,40,7.80
2019,03,19,02,41,7.80
2019,03,19,02,42,7.80
2019,03,19,02,43,7.80
2019,03,19,02,44,7.80
2019,03,19,02,45,7.80
2019,03,19,02,46,7.70
2019,03,19,02,47,7.70
2019,03,19,02,48,7.70
2019,03,19,02,49,7.70
2019,03,19,02,50,7.70
2019,03,19,02,51,7.70
2019,03,19,02,52,7.60
2019,03,19,02,53,7.60
2019,03,19,02,54,7.60
2019,03,19,02,55,7.60
2019,03,19,02,56,7.60
2019,03,19,02,57,7.60
2019,03,19,02,58,7.50
2019,03,19,02,59,7.50
2019,03,19,03,00,7.50
2019,03,19,03,01,7.50
2019,03,19,03,02,7.50
2019,03,19,03,03,7.50
2019,03,19,03,04,7.50
2019,03,19,03,05,7.50
2019,03,19,03,06,7.50
2019,03,19,03,07,7.50
2019,03,19,03,08,7.60
2019,03,19,03,09,7.60
2019,03,19,03,10,7.60
2019,03,19,03,11,7.60
2019,03,19,03,12,7.60
2019,03,19,03,13,7.60
2019,03,19,03,14,7.60
2019,03,19,03,15,7.60
2019,03,19,03,16,7.60
2019,03,19,03,17,7.60
2019,03,19,03,18,7.60
2019,03,19,03,19,7.60
2019,03,19,03,20,7.60
2019,03,19,03,21,7.60
2019,03,19,03,22,7.60
2019,03,19,03,23,7.60
2019,03,19,03,24,7.50
2019,03,19,03,25,7.50
2019,03,19,03,26,7.50
2019,03,19,03,27,7.40
2019,03,19,03,28,7.40
2019,03,19,03,29,7.40
2019,03,19,03,30,7.40
2019,03,19,03,31,7.40
2019,03,19,03,32,7.40
2019,03,19,03,33,7.30
2019,03,19,03,34,7.30
2019,03,19,03,35,7.30
2019,03,19,03,36,7.30
2019,03,19,03,37,7.30
2019,03,19,03,38,7.30
2019,03,19,03,39,7.30
2019,03,19,03,40,7.20
2019,03,19,03,41,7.20
2019,03,19,03,42,7.20
2019,03,19,03,43,7.20
2019,03,19,03,44,7.10
2019,03,19,03,45,7.10
2019,03,19,03,46,7.10
2019,03,19,03,47,7.10
2019,03,19,03,48,7.10
2019,03,19,03,49,7.00
2019,03,19,03,50,7.00
2019,03,19,03,51,7.00
2019,03,19,03,52,6.90
2019,03,19,03,53,6.90
2019,03,19,03,54,6.90
2019,03,19,03,55,6.90
2019,03,19,03,56,6.90
2019,03,19,03,57,6.90
2019,03,19,03,58,6.90
2019,03,19,03,59,6.90
2019,03,19,04,00,6.80
2019,03,19,04,01,6.80
2019,03,19,04,02,6.80
2019,03,19,04,03,6.80
2019,03,19,04,04,6.80
2019,03,19,04,05,6.70
2019,03,19,04,06,6.70
2019,03,19,04,07,6.70
2019,03,19,04,08,6.70
2019,03,19,04,09,6.70
2019,03,19,04,10,6.70
2019,03,19,04,11,6.70
2019,03,19,04,12,6.70
2019,03,19,04,13,6.70
2019,03,19,04,14,6.70
2019,03,19,04,15,6.70
2019,03,19,04,16,6.70
2019,03,19,04,17,6.70
2019,03,19,04,18,6.70
2019,03,19,04,19,6.70
2019,03,19,04,20,6.70
2019,03,19,04,21,6.70
2019,03,19,04,22,6.70
2019,03,19,04,23,6.70
2019,03,19,04,24,6.70
2019,03,19,04,25,6.70
2019,03,19,04,26,6.70
2019,03,19,04,27,6.70
2019,03,19,04,28,6.70
2019,03,19,04,29,6.70
2019,03,19,04,30,6.70
2019,03,19,04,31,6.70
2019,03,19,04,32,6.70
2019,03,19,04,33,6.70
2019,03,19,04,34,6.70
2019,03,19,04,35,6.70
2019,03,19,04,36,6.70
2019,03,19,04,37,6.70
2019,03,19,04,38,6.70
2019,03,19,04,39,6.70
2019,03,19,04,40,6.70
2019,03,19,04,41,6.70
2019,03,19,04,42,6.60
2019,03,19,04,43,6.60
2019,03,19,04,44,6.60
2019,03,19,04,45,6.60
2019,03,19,04,46,6.60
2019,03,19,04,47,6.60
2019,03,19,04,48,6.60
2019,03,19,04,49,6.60
2019,03,19,04,50,6.60
2019,03,19,04,51,6.60
2019,03,19,04,52,6.60
2019,03,19,04,53,6.60
2019,03,19,04,54,6.60
2019,03,19,04,55,6.60
2019,03,19,04,56,6.60
2019,03,19,04,57,6.60
2019,03,19,04,58,6.60
2019,03,19,04,59,6.60
2019,03,19,05,00,6.60
2019,03,19,05,01,6.60
2019,03,19,05,02,6.60
2019,03,19,05,03,6.60
2019,03,19,05,04,6.60
2019,03,19,05,05,6.70
2019,03,19,05,06,6.70
2019,03,19,05,07,6.70
2019,03,19,05,08,6.70
2019,03,19,05,09,6.60
2019,03,19,05,10,6.60
2019,03,19,05,11,6.70
2019,03,19,05,12,6.60
2019,03,19,05,13,6.60
2019,03,19,05,14,6.60
2019,03,19,05,15,6.60
2019,03,19,05,16,6.60
2019,03,19,05,17,6.60
2019,03,19,05,18,6.60
2019,03,19,05,19,6.50
2019,03,19,05,20,6.50
2019,03,19,05,21,6.50
2019,03,19,05,22,6.50
2019,03,19,05,23,6.50
2019,03,19,05,24,6.50
2019,03,19,05,25,6.50
2019,03,19,05,26,6.50
2019,03,19,05,27,6.50
2019,03,19,05,28,6.50
2019,03,19,05,29,6.40
2019,03,19,05,30,6.50
2019,03,19,05,31,6.40
2019,03,19,05,32,6.40
2019,03,19,05,33,6.40
2019,03,19,05,34,6.40
2019,03,19,05,35,6.30
2019,03,19,05,36,6.30
2019,03,19,05,37,6.30
2019,03,19,05,38,6.30
2019,03,19,05,39,6.20
2019,03,19,05,40,6.20
2019,03,19,05,41,6.20
2019,03,19,05,42,6.20
2019,03,19,05,43,6.20
2019,03,19,05,44,6.20
2019,03,19,05,45,6.20
2019,03,19,05,46,6.10
2019,03,19,05,47,6.10
2019,03,19,05,48,6.10
2019,03,19,05,49,6.10
2019,03,19,05,50,6.00
2019,03,19,05,51,6.00
2019,03,19,05,52,6.00
2019,03,19,05,53,6.00
2019,03,19,05,54,5.90
2019,03,19,05,55,5.90
2019,03,19,05,56,5.90
2019,03,19,05,57,5.90
2019,03,19,05,58,5.90
2019,03,19,05,59,5.90
2019,03,19,06,00,5.80
2019,03,19,06,01,5.80
2019,03,19,06,02,5.80
2019,03,19,06,03,5.80
2019,03,19,06,04,5.80
2019,03,19,06,05,5.80
2019,03,19,06,06,5.80
2019,03,19,06,07,5.70
2019,03,19,06,08,5.70
2019,03,19,06,09,5.70
2019,03,19,06,10,5.70
2019,03,19,06,11,5.70
2019,03,19,06,12,5.70
2019,03,19,06,13,5.70
2019,03,19,06,14,5.70
2019,03,19,06,15,5.70
2019,03,19,06,16,5.70
2019,03,19,06,17,5.80
2019,03,19,06,18,5.80
2019,03,19,06,19,5.80
2019,03,19,06,20,5.80
2019,03,19,06,21,5.80
2019,03,19,06,22,5.80
2019,03,19,06,23,5.90
2019,03,19,06,24,5.90
2019,03,19,06,25,5.90
2019,03,19,06,26,5.90
2019,03,19,06,27,5.90
2019,03,19,06,28,5.90
2019,03,19,06,29,5.90
2019,03,19,06,30,5.90
2019,03,19,06,31,5.90
2019,03,19,06,32,5.90
2019,03,19,06,33,6.00
2019,03,19,06,34,6.00
2019,03,19,06,35,6.00
2019,03,19,06,36,6.00
2019,03,19,06,37,6.10
2019,03,19,06,38,6.10
2019,03,19,06,39,6.10
2019,03,19,06,40,6.10
2019,03,19,06,41,6.10
2019,03,19,06,42,6.10
2019,03,19,06,43,6.10
2019,03,19,06,44,6.10
2019,03,19,06,45,6.20
2019,03,19,06,46,6.20
2019,03,19,06,47,6.20
2019,03,19,06,48,6.20
2019,03,19,06,49,6.20
2019,03,19,06,50,6.20
2019,03,19,06,51,6.20
2019,03,19,06,52,6.20
2019,03,19,06,53,6.20
2019,03,19,06,54,6.20
2019,03,19,06,55,6.10
2019,03,19,06,56,6.10
2019,03,19,06,57,6.10
2019,03,19,06,58,6.10
2019,03,19,06,59,6.10
2019,03,19,07,00,6.00
2019,03,19,07,01,6.00
2019,03,19,07,02,6.00
2019,03,19,07,03,6.00
2019,03,19,07,04,6.00
2019,03,19,07,05,5.90
2019,03,19,07,06,5.90
2019,03,19,07,07,5.90
2019,03,19,07,08,5.90
2019,03,19,07,09,5.90
2019,03,19,07,10,5.90
2019,03,19,07,11,5.90
2019,03,19,07,12,5.90
2019,03,19,07,13,5.90
2019,03,19,07,14,5.90
2019,03,19,07,15,5.90
2019,03,19,07,16,5.90
2019,03,19,07,17,5.90
2019,03,19,07,18,5.90
2019,03,19,07,19,5.90
2019,03,19,07,20,5.90
2019,03,19,07,21,5.90
2019,03,19,07,22,5.90
2019,03,19,07,23,5.90
2019,03,19,07,24,5.80
2019,03,19,07,25,5.80
2019,03,19,07,26,5.80
2019,03,19,07,27,5.80
2019,03,19,07,28,5.80
2019,03,19,07,29,5.80
2019,03,19,07,30,5.80
2019,03,19,07,31,5.80
2019,03,19,07,32,5.80
2019,03,19,07,33,5.80
2019,03,19,07,34,5.80
2019,03,19,07,35,5.80
2019,03,19,07,36,5.80
2019,03,19,07,37,5.80
2019,03,19,07,38,5.80
2019,03,19,07,39,5.70
2019,03,19,07,40,5.80
2019,03,19,07,41,5.70
2019,03,19,07,42,5.80
2019,03,19,07,43,5.80
2019,03,19,07,44,5.70
2019,03,19,07,45,5.70
2019,03,19,07,46,5.70
2019,03,19,07,47,5.70
2019,03,19,07,48,5.70
2019,03,19,07,49,5.70
2019,03,19,07,50,5.70
2019,03,19,07,51,5.60
2019,03,19,07,52,5.60
2019,03,19,07,53,5.60
2019,03,19,07,54,5.60
2019,03,19,07,55,5.50
2019,03,19,07,56,5.50
2019,03,19,07,57,5.50
2019,03,19,07,58,5.50
2019,03,19,07,59,5.50
2019,03,19,08,00,5.50
2019,03,19,08,01,5.50
2019,03,19,08,02,5.50
2019,03,19,08,03,5.50
2019,03,19,08,04,5.50
2019,03,19,08,05,5.50
2019,03,19,08,06,5.50
2019,03,19,08,07,5.40
2019,03,19,08,08,5.40
2019,03,19,08,09,5.40
2019,03,19,08,10,5.40
2019,03,19,08,11,5.40
2019,03,19,08,12,5.40
2019,03,19,08,13,5.50
2019,03,19,08,14,5.50
2019,03,19,08,15,5.50
2019,03,19,08,16,5.50
2019,03,19,08,17,5.60
2019,03,19,08,18,5.60
2019,03,19,08,19,5.60
2019,03,19,08,20,5.60
2019,03,19,08,21,5.70
2019,03,19,08,22,5.70
2019,03,19,08,23,5.70
2019,03,19,08,24,5.70
2019,03,19,08,25,5.70
2019,03,19,08,26,5.70
2019,03,19,08,27,5.70
2019,03,19,08,28,5.70
2019,03,19,08,29,5.70
2019,03,19,08,30,5.80
2019,03,19,08,31,5.80
2019,03,19,08,32,5.80
2019,03,19,08,33,5.80
2019,03,19,08,34,5.80
2019,03,19,08,35,5.80
2019,03,19,08,36,5.80
2019,03,19,08,37,5.80
2019,03,19,08,38,5.80
2019,03,19,08,39,5.80
2019,03,19,08,40,5.80
2019,03,19,08,41,5.80
2019,03,19,08,42,5.80
2019,03,19,08,43,5.80
2019,03,19,08,44,5.80
2019,03,19,08,45,5.80
2019,03,19,08,46,5.90
2019,03,19,08,47,5.90
2019,03,19,08,48,5.90
2019,03,19,08,49,5.90
2019,03,19,08,50,5.90
2019,03,19,08,51,6.00
2019,03,19,08,52,6.00
2019,03,19,08,53,6.00
2019,03,19,08,54,6.00
2019,03,19,08,55,6.10
2019,03,19,08,56,6.10
2019,03,19,08,57,6.10
2019,03,19,08,58,6.10
2019,03,19,08,59,6.10
2019,03,19,09,00,6.10
2019,03,19,09,01,6.10
2019,03,19,09,02,6.10
2019,03,19,09,03,6.20
2019,03,19,09,04,6.20
2019,03,19,09,05,6.20
2019,03,19,09,06,6.20
2019,03,19,09,07,6.20
2019,03,19,09,08,6.20
2019,03,19,09,09,6.20
2019,03,19,09,10,6.20
2019,03,19,09,11,6.20
2019,03,19,09,12,6.20
2019,03,19,09,13,6.20
2019,03,19,09,14,6.20
2019,03,19,09,15,6.20
2019,03,19,09,16,6.20
2019,03,19,09,17,6.20
2019,03,19,09,18,6.20
2019,03,19,09,19,6.30
2019,03,19,09,20,6.30
2019,03,19,09,21,6.30
2019,03,19,09,22,6.30
2019,03,19,09,23,6.30
2019,03,19,09,24,6.30
2019,03,19,09,25,6.40
2019,03,19,09,26,6.40
2019,03,19,09,27,6.40
2019,03,19,09,28,6.40
2019,03,19,09,29,6.40
2019,03,19,09,30,6.40
2019,03,19,09,31,6.40
2019,03,19,09,32,6.50
2019,03,19,09,33,6.50
2019,03,19,09,34,6.50
2019,03,19,09,35,6.50
2019,03,19,09,36,6.50
2019,03,19,09,37,6.50
2019,03,19,09,38,6.50
2019,03,19,09,39,6.50
2019,03,19,09,40,6.60
2019,03,19,09,41,6.60
2019,03,19,09,42,6.60
2019,03,19,09,43,6.60
2019,03,19,09,44,6.60
2019,03,19,09,45,6.60
2019,03,19,09,46,6.60
2019,03,19,09,47,6.70
2019,03,19,09,48,6.70
2019,03,19,09,49,6.70
2019,03,19,09,50,6.80
2019,03,19,09,51,6.80
2019,03,19,09,52,6.80
2019,03,19,09,53,6.80
2019,03,19,09,54,6.80
2019,03,19,09,55,6.90
2019,03,19,09,56,6.90
2019,03,19,09,57,7.00
2019,03,19,09,58,7.00
2019,03,19,09,59,7.10
2019,03,19,10,00,7.10
2019,03,19,10,01,7.10
2019,03,19,10,02,7.20
2019,03,19,10,03,7.20
2019,03,19,10,04,7.30
2019,03,19,10,05,7.30
2019,03,19,10,06,7.30
2019,03,19,10,07,7.40
2019,03,19,10,08,7.40
2019,03,19,10,09,7.40
2019,03,19,10,10,7.40
2019,03,19,10,11,7.40
2019,03,19,10,12,7.40
2019,03,19,10,13,7.40
2019,03,19,10,14,7.40
2019,03,19,10,15,7.40
2019,03,19,10,16,7.50
2019,03,19,10,17,7.40
2019,03,19,10,18,7.50
2019,03,19,10,19,7.50
2019,03,19,10,20,7.50
2019,03,19,10,21,7.50
2019,03,19,10,22,7.50
2019,03,19,10,23,7.60
2019,03,19,10,24,7.60
2019,03,19,10,25,7.60
2019,03,19,10,26,7.60
2019,03,19,10,27,7.60
2019,03,19,10,28,7.60
2019,03,19,10,29,7.60
2019,03,19,10,30,7.70
2019,03,19,10,31,7.70
2019,03,19,10,32,7.70
2019,03,19,10,33,7.70
2019,03,19,10,34,7.70
2019,03,19,10,35,7.80
2019,03,19,10,36,7.80
2019,03,19,10,37,7.80
2019,03,19,10,38,7.80
2019,03,19,10,39,7.80
2019,03,19,10,40,7.90
2019,03,19,10,41,7.90
2019,03,19,10,42,8.00
2019,03,19,10,43,8.00
2019,03,19,10,44,8.10
2019,03,19,10,45,8.10
2019,03,19,10,46,8.10
2019,03,19,10,47,8.10
2019,03,19,10,48,8.20
2019,03,19,10,49,8.20
2019,03,19,10,50,8.20
2019,03,19,10,51,8.20
2019,03,19,10,52,8.20
2019,03,19,10,53,8.30
2019,03,19,10,54,8.30
2019,03,19,10,55,8.30
2019,03,19,10,56,8.40
2019,03,19,10,57,8.40
2019,03,19,10,58,8.50
2019,03,19,10,59,8.50
2019,03,19,11,00,8.60
2019,03,19,11,01,8.60
2019,03,19,11,02,8.60
2019,03,19,11,03,8.60
2019,03,19,11,04,8.50
2019,03,19,11,05,8.50
2019,03,19,11,06,8.60
2019,03,19,11,07,8.60
2019,03,19,11,08,8.60
2019,03,19,11,09,8.60
2019,03,19,11,10,8.60
2019,03,19,11,11,8.70
2019,03,19,11,12,8.70
2019,03,19,11,13,8.70
2019,03,19,11,14,8.80
2019,03,19,11,15,8.80
2019,03,19,11,16,8.90
2019,03,19,11,17,8.90
2019,03,19,11,18,9.00
2019,03,19,11,19,9.10
2019,03,19,11,20,9.20
2019,03,19,11,21,9.20
2019,03,19,11,22,9.30
2019,03,19,11,23,9.30
2019,03,19,11,24,9.30
2019,03,19,11,25,9.30
2019,03,19,11,26,9.30
2019,03,19,11,27,9.40
2019,03,19,11,28,9.40
2019,03,19,11,29,9.40
2019,03,19,11,30,9.40
2019,03,19,11,31,9.40
2019,03,19,11,32,9.40
2019,03,19,11,33,9.40
2019,03,19,11,34,9.40
2019,03,19,11,35,9.40
2019,03,19,11,36,9.40
2019,03,19,11,37,9.40
2019,03,19,11,38,9.50
2019,03,19,11,39,9.50
2019,03,19,11,40,9.50
2019,03,19,11,41,9.60
2019,03,19,11,42,9.60
2019,03,19,11,43,9.60
2019,03,19,11,44,9.60
2019,03,19,11,45,9.70
2019,03,19,11,46,9.70
2019,03,19,11,47,9.70
2019,03,19,11,48,9.70
2019,03,19,11,49,9.80
2019,03,19,11,50,9.80
2019,03,19,11,51,9.80
2019,03,19,11,52,9.80
2019,03,19,11,53,9.80
2019,03,19,11,54,9.80
2019,03,19,11,55,9.80
2019,03,19,11,56,9.80
2019,03,19,11,57,9.80
2019,03,19,11,58,9.80
2019,03,19,11,59,9.80
2019,03,19,12,00,9.80
2019,03,19,12,01,9.90
2019,03,19,12,02,9.90
2019,03,19,12,03,10.10
2019,03,19,12,04,10.20
2019,03,19,12,05,10.40
2019,03,19,12,06,10.60
2019,03,19,12,07,10.70
2019,03,19,12,08,10.90
2019,03,19,12,09,11.00
2019,03,19,12,10,11.10
2019,03,19,12,11,11.20
2019,03,19,12,12,11.30
2019,03,19,12,13,11.30
2019,03,19,12,14,11.40
2019,03,19,12,15,11.40
2019,03,19,12,16,11.40
2019,03,19,12,17,11.30
2019,03,19,12,18,11.30
2019,03,19,12,19,11.30
2019,03,19,12,20,11.30
2019,03,19,12,21,11.20
2019,03,19,12,22,11.20
2019,03,19,12,23,11.20
2019,03,19,12,24,11.20
2019,03,19,12,25,11.20
2019,03,19,12,26,11.30
2019,03,19,12,27,11.30
2019,03,19,12,28,11.30
2019,03,19,12,29,11.30
2019,03,19,12,30,11.40
2019,03,19,12,31,11.40
2019,03,19,12,32,11.40
2019,03,19,12,33,11.40
2019,03,19,12,34,11.40
2019,03,19,12,35,11.50
2019,03,19,12,36,11.50
2019,03,19,12,37,11.60
2019,03,19,12,38,11.70
2019,03,19,12,39,11.80
2019,03,19,12,40,11.90
2019,03,19,12,41,12.00
2019,03,19,12,42,12.10
2019,03,19,12,43,12.10
2019,03,19,12,44,12.00
2019,03,19,12,45,11.90
2019,03,19,12,46,11.90
2019,03,19,12,47,11.80
2019,03,19,12,48,11.80
2019,03,19,12,49,11.70
2019,03,19,12,50,11.70
2019,03,19,12,51,11.70
2019,03,19,12,52,11.70
2019,03,19,12,53,11.80
2019,03,19,12,54,12.00
2019,03,19,12,55,12.10
2019,03,19,12,56,12.20
2019,03,19,12,57,12.40
2019,03,19,12,58,12.50
2019,03,19,12,59,12.60
2019,03,19,13,00,12.60
2019,03,19,13,01,12.80
2019,03,19,13,02,12.80
2019,03,19,13,03,12.90
2019,03,19,13,04,12.90
2019,03,19,13,05,12.90
2019,03,19,13,06,12.90
2019,03,19,13,07,12.90
2019,03,19,13,08,12.80
2019,03,19,13,09,12.80
2019,03,19,13,10,12.80
2019,03,19,13,11,12.80
2019,03,19,13,12,12.80
2019,03,19,13,13,12.80
2019,03,19,13,14,12.80
2019,03,19,13,15,12.80
2019,03,19,13,16,12.80
2019,03,19,13,17,12.70
2019,03,19,13,18,12.70
2019,03,19,13,19,12.80
2019,03,19,13,20,12.80
2019,03,19,13,21,12.80
2019,03,19,13,22,12.90
2019,03,19,13,23,12.90
2019,03,19,13,24,12.90
2019,03,19,13,25,12.90
2019,03,19,13,26,13.00
2019,03,19,13,27,13.00
2019,03,19,13,28,13.10
2019,03,19,13,29,13.10
2019,03,19,13,30,13.10
2019,03,19,13,31,13.10
2019,03,19,13,32,13.10
2019,03,19,13,33,13.10
2019,03,19,13,34,13.10
2019,03,19,13,35,13.10
2019,03,19,13,36,13.10
2019,03,19,13,37,13.10
2019,03,19,13,38,13.20
2019,03,19,13,39,13.20
2019,03,19,13,40,13.30
2019,03,19,13,41,13.40
2019,03,19,13,42,13.40
2019,03,19,13,43,13.40
2019,03,19,13,44,13.30
2019,03,19,13,45,13.10
2019,03,19,13,46,12.90
2019,03,19,13,47,12.70
2019,03,19,13,48,12.40
2019,03,19,13,49,12.30
2019,03,19,13,50,12.20
2019,03,19,13,51,12.20
2019,03,19,13,52,12.30
2019,03,19,13,53,12.40
2019,03,19,13,54,12.50
2019,03,19,13,55,12.60
2019,03,19,13,56,12.60
2019,03,19,13,57,12.50
2019,03,19,13,58,12.40
2019,03,19,13,59,12.50
2019,03,19,14,00,12.60
2019,03,19,14,01,12.70
2019,03,19,14,02,12.70
2019,03,19,14,03,12.70
2019,03,19,14,04,12.80
2019,03,19,14,05,12.80
2019,03,19,14,06,12.90
2019,03,19,14,07,12.90
2019,03,19,14,08,12.80
2019,03,19,14,09,12.50
2019,03,19,14,10,12.30
2019,03,19,14,11,12.20
2019,03,19,14,12,12.20
2019,03,19,14,13,12.10
2019,03,19,14,14,12.10
2019,03,19,14,15,11.90
2019,03,19,14,16,11.90
2019,03,19,14,17,12.00
2019,03,19,14,18,12.10
2019,03,19,14,19,12.20
2019,03,19,14,20,12.20
2019,03,19,14,21,12.30
2019,03,19,14,22,12.40
2019,03,19,14,23,12.40
2019,03,19,14,24,12.50
2019,03,19,14,25,12.60
2019,03,19,14,26,12.70
2019,03,19,14,27,12.80
2019,03,19,14,28,12.80
2019,03,19,14,29,12.90
2019,03,19,14,30,12.80
2019,03,19,14,31,12.90
2019,03,19,14,32,13.00
2019,03,19,14,33,13.10
2019,03,19,14,34,13.20
2019,03,19,14,35,13.30
2019,03,19,14,36,13.30
2019,03,19,14,37,13.30
2019,03,19,14,38,13.40
2019,03,19,14,39,13.50
2019,03,19,14,40,13.70
2019,03,19,14,41,13.90
2019,03,19,14,42,14.10
2019,03,19,14,43,14.20
2019,03,19,14,44,14.30
2019,03,19,14,45,14.30
2019,03,19,14,46,14.40
2019,03,19,14,47,14.40
2019,03,19,14,48,14.30
2019,03,19,14,49,14.20
2019,03,19,14,50,14.10
2019,03,19,14,51,14.00
2019,03,19,14,52,13.90
2019,03,19,14,53,13.80
2019,03,19,14,54,13.80
2019,03,19,14,55,13.80
2019,03,19,14,56,13.90
2019,03,19,14,57,14.00
2019,03,19,14,58,14.10
2019,03,19,14,59,14.20
2019,03,19,15,00,14.40
2019,03,19,15,01,14.50
2019,03,19,15,02,14.60
2019,03,19,15,03,14.80
2019,03,19,15,04,15.00
2019,03,19,15,05,15.20
2019,03,19,15,06,15.30
2019,03,19,15,07,15.30
2019,03,19,15,08,15.30
2019,03,19,15,09,15.40
2019,03,19,15,10,15.40
2019,03,19,15,11,15.30
2019,03,19,15,12,15.10
2019,03,19,15,13,14.80
2019,03,19,15,14,14.50
2019,03,19,15,15,14.40
2019,03,19,15,16,14.30
2019,03,19,15,17,14.30
2019,03,19,15,18,14.30
2019,03,19,15,19,14.30
2019,03,19,15,20,14.20
2019,03,19,15,21,14.10
2019,03,19,15,22,14.10
2019,03,19,15,23,14.00
2019,03,19,15,24,13.90
2019,03,19,15,25,13.80
2019,03,19,15,26,13.80
2019,03,19,15,27,13.70
2019,03,19,15,28,13.70
2019,03,19,15,29,13.70
2019,03,19,15,30,13.70
2019,03,19,15,31,13.80
2019,03,19,15,32,13.70
2019,03,19,15,33,13.70
2019,03,19,15,34,13.70
2019,03,19,15,35,13.60
2019,03,19,15,36,13.60
2019,03,19,15,37,13.60
2019,03,19,15,38,13.60
2019,03,19,15,39,13.70
2019,03,19,15,40,13.80
2019,03,19,15,41,13.90
2019,03,19,15,42,13.90
2019,03,19,15,43,13.90
2019,03,19,15,44,13.90
2019,03,19,15,45,13.80
2019,03,19,15,46,13.70
2019,03,19,15,47,13.70
2019,03,19,15,48,13.60
2019,03,19,15,49,13.60
2019,03,19,15,50,13.60
2019,03,19,15,51,13.60
2019,03,19,15,52,13.70
2019,03,19,15,53,13.80
2019,03,19,15,54,13.90
2019,03,19,15,55,14.10
2019,03,19,15,56,14.20
2019,03,19,15,57,14.30
2019,03,19,15,58,14.50
2019,03,19,15,59,14.70
2019,03,19,16,00,14.90
2019,03,19,16,01,15.20
2019,03,19,16,02,15.50
2019,03,19,16,03,15.70
2019,03,19,16,04,15.90
2019,03,19,16,05,16.10
2019,03,19,16,06,16.30
2019,03,19,16,07,16.50
2019,03,19,16,08,16.70
2019,03,19,16,09,16.90
2019,03,19,16,10,17.10
2019,03,19,16,11,17.20
2019,03,19,16,12,17.40
2019,03,19,16,13,17.50
2019,03,19,16,14,17.60
2019,03,19,16,15,17.70
2019,03,19,16,16,17.80
2019,03,19,16,17,17.90
2019,03,19,16,18,18.00
2019,03,19,16,19,18.10
2019,03,19,16,20,18.20
2019,03,19,16,21,18.30
2019,03,19,16,22,18.40
2019,03,19,16,23,18.60
2019,03,19,16,24,18.60
2019,03,19,16,25,18.80
2019,03,19,16,26,18.90
2019,03,19,16,27,19.00
2019,03,19,16,28,19.10
2019,03,19,16,29,19.20
2019,03,19,16,30,19.20
2019,03,19,16,31,19.10
2019,03,19,16,32,18.90
2019,03,19,16,33,18.70
2019,03,19,16,34,18.50
2019,03,19,16,35,18.20
2019,03,19,16,36,18.00
2019,03,19,16,37,17.80
2019,03,19,16,38,17.70
2019,03,19,16,39,17.50
2019,03,19,16,40,17.40
2019,03,19,16,41,17.30
2019,03,19,16,42,17.20
2019,03,19,16,43,17.20
2019,03,19,16,44,17.10
2019,03,19,16,45,17.10
2019,03,19,16,46,17.20
2019,03,19,16,47,17.20
2019,03,19,16,48,17.20
2019,03,19,16,49,17.20
2019,03,19,16,50,17.30
2019,03,19,16,51,17.30
2019,03,19,16,52,17.40
2019,03,19,16,53,17.60
2019,03,19,16,54,17.60
2019,03,19,16,55,17.60
2019,03,19,16,56,17.60
2019,03,19,16,57,17.60
2019,03,19,16,58,17.60
2019,03,19,16,59,17.60
2019,03,19,17,00,17.50
2019,03,19,17,01,17.50
2019,03,19,17,02,17.40
2019,03,19,17,03,17.40
2019,03,19,17,04,17.30
2019,03,19,17,05,17.10
2019,03,19,17,06,17.00
2019,03,19,17,07,16.80
2019,03,19,17,08,16.70
2019,03,19,17,09,16.60
2019,03,19,17,10,16.50
2019,03,19,17,11,16.50
2019,03,19,17,12,16.50
2019,03,19,17,13,16.40
2019,03,19,17,14,16.40
2019,03,19,17,15,16.50
2019,03,19,17,16,16.60
2019,03,19,17,17,16.60
2019,03,19,17,18,16.70
2019,03,19,17,19,16.70
2019,03,19,17,20,16.80
2019,03,19,17,21,17.00
2019,03,19,17,22,17.10
2019,03,19,17,23,17.20
2019,03,19,17,24,17.30
2019,03,19,17,25,17.30
2019,03,19,17,26,17.30
2019,03,19,17,27,17.30
2019,03,19,17,28,17.30
2019,03,19,17,29,17.20
2019,03,19,17,30,17.30
2019,03,19,17,31,17.30
2019,03,19,17,32,17.30
2019,03,19,17,33,17.30
2019,03,19,17,34,17.30
2019,03,19,17,35,17.30
2019,03,19,17,36,17.30
2019,03,19,17,37,17.30
2019,03,19,17,38,17.20
2019,03,19,17,39,17.20
2019,03,19,17,40,17.20
2019,03,19,17,41,17.10
2019,03,19,17,42,17.10
2019,03,19,17,43,17.00
2019,03,19,17,44,16.90
2019,03,19,17,45,16.90
2019,03,19,17,46,16.90
2019,03,19,17,47,16.90
2019,03,19,17,48,16.90
2019,03,19,17,49,17.00
2019,03,19,17,50,17.00